Preview of NWS' New Version of Forecast
This preview is not operational and should not be used for support decisions.

Regional Weather Roundup (RWR)

Issued by National Weather Service (NWS)

                            
000
ASUS42 KTBW 232216
RWRFL 
FLORIDA REGIONAL WEATHER ROUNDUP
NATIONAL WEATHER SERVICE TAMPA BAY RUSKIN FL
600 PM EDT TUE APR 23 2019

NOTE: "FAIR" INDICATES FEW OR NO CLOUDS BELOW 12,000 FEET WITH NO
SIGNIFICANT WEATHER AND/OR OBSTRUCTIONS TO VISIBILITY.

FLZ001>010-012>015-112-114-115-232300-
PANHANDLE FLORIDA
  
CITY           SKY/WX    TMP DP  RH WIND       PRES   REMARKS
PENSACOLA      NOT AVBL                                               
MILTON NAS     PTSUNNY   73  57  57 S10       30.09F                  
PANAMA CITY    NOT AVBL                                               

STATION/POSITION SKY/WX   TEMP    WIND        PRES    WAVE   SWELL
                          AIR SEA DIR/SP/G            HT/PER HT/PER
                          (F)     (DEG/KT/KT) (MB)    (FT/S) (FT/S)
30.1N   87.6W              69     100/  2/  4   N/A
29.2N   88.2W                     110/  6/  8 1019.5
PANAMA CITY BEAC           72 71  240/ 12/ 13 1019.8
TOWER C          NOT AVBL

$$
FLZ011-016>038-118-127-128-134-139-239-232300-
NORTH FLORIDA
  
CITY           SKY/WX    TMP DP  RH WIND       PRES   REMARKS
TALLAHASSEE    NOT AVBL                                               
GAINESVILLE    NOT AVBL                                               
MAYPORT NAS    PTSUNNY   77  56  48 SE10      30.07S                  
JACKSONVILLE   NOT AVBL                                               
JAX CECIL      NOT AVBL                                               

STATION/POSITION SKY/WX   TEMP    WIND        PRES    WAVE   SWELL
                          AIR SEA DIR/SP/G            HT/PER HT/PER
                          (F)     (DEG/KT/KT) (MB)    (FT/S) (FT/S)
SHELL POINT      NOT AVBL
KEATON BEACH               72     260/ 10/ 11 1018.7F
CEDAR KEY                  76     270/  6/  7 1018.3F
FERNANDINA                 80 72  150/  8/ 13 1018.9S
30.7N   81.3W                 71                N/A     2/ 8
MAYPORT                    76 72  130/  9/ 11 1018.6S
31.4N   80.9W              70 70  180/ 10/ 10 1018.6    2/ 9   2/ 9
ST AUGUSTINE               74 76  120/  8/  8 1018.7F

$$
FLZ040-043>046-052-053-057-058-063-144-232300-
INTERIOR CENTRAL FLORIDA
  
CITY           SKY/WX    TMP DP  RH WIND       PRES   REMARKS
ORLANDO INTL   NOT AVBL                                               

$$
FLZ041-047-054-059-064-141-147-232300-
EAST CENTRAL FLORIDA
  
CITY           SKY/WX    TMP DP  RH WIND       PRES   REMARKS
DAYTONA BEACH  NOT AVBL                                               
MELBOURNE      NOT AVBL                                               

STATION/POSITION SKY/WX   TEMP    WIND        PRES    WAVE   SWELL
                          AIR SEA DIR/SP/G            HT/PER HT/PER
                          (F)     (DEG/KT/KT) (MB)    (FT/S) (FT/S)
28.5N   80.2W              73     340/ 12/ 14 1018.9
28.9N   78.5W              73 79   10/  8/ 12 1018.9
TRIDENT PIER               77 77   30/  9/ 11 1019.8R
28.4N   80.5W                 76                N/A     2/ 8
27.5N   80.2W                 75                N/A     2/ 8

$$
FLZ050-056-061-142-242-148-248-149-249-151-251-155-255-
160-260-232300-
WEST CENTRAL FLORIDA
  
CITY           SKY/WX    TMP DP  RH WIND       PRES   REMARKS
INVERNESS      FAIR      82  52  34 CALM      30.06S                  
BROOKSVILLE    NOT AVBL                                               
ST PETE CLEARW NOT AVBL                                               
TAMPA INTL     NOT AVBL                                               
ST PETERSBURG  NOT AVBL                                               
SARASOTA       NOT AVBL                                               
VENICE         NOT AVBL                                               

STATION/POSITION SKY/WX   TEMP    WIND        PRES    WAVE   SWELL
                          AIR SEA DIR/SP/G            HT/PER HT/PER
                          (F)     (DEG/KT/KT) (MB)    (FT/S) (FT/S)
27.3N   84.2W                 76                N/A     2/ 4
CLEARWATER BEACH           74 76  300/ 10/ 11 1018.1
MIDDLE TAMPA BAY           74     310/ 12/ 14 1017.4
VENICE                     75 75  300/ 12/ 13 1017.6F

$$
FLZ066-069-070-075>078-162-262-165-265-232300-
SOUTHWEST FLORIDA AND KEYS
  
CITY           SKY/WX    TMP DP  RH WIND       PRES   REMARKS
FT MYERS       NOT AVBL                                               
KEY WEST NAS   FAIR      81  60  48 E12       30.01F                  
KEY WEST INTL  NOT AVBL                                               

STATION/POSITION SKY/WX   TEMP    WIND        PRES    WAVE   SWELL
                          AIR SEA DIR/SP/G            HT/PER HT/PER
                          (F)     (DEG/KT/KT) (MB)    (FT/S) (FT/S)
NAPLES                     80 77  220/  9/ 11 1016.7F
DRY TORTUGAS               76      80/ 10/ 12 1017.4F
SAND KEY                   76                 1016.9
SOMBRERO KEY               76                 1016.0

$$
FLZ067-068-071>074-168-172>174-232300-
SOUTHEAST FLORIDA 
  
CITY           SKY/WX    TMP DP  RH WIND       PRES   REMARKS
FT LAUDERDALE  NOT AVBL                                               
MIAMI          NOT AVBL                                               
HOMESTEAD      NOT AVBL                                               

STATION/POSITION SKY/WX   TEMP    WIND        PRES    WAVE   SWELL
                          AIR SEA DIR/SP/G            HT/PER HT/PER
                          (F)     (DEG/KT/KT) (MB)    (FT/S) (FT/S)
PORT EVERGLADES            76      50/ 11/ 14 1017.3
VIRGINIA KEY               77 80   40/  9/ 14 1016.4
LAKE WORTH                 74 78   40/ 11/ 14 1018.6F
SETTLEMENT POINT           73      50/  8/ 10 1017.9F

$$